Regional Weather Roundup
Issued by NWS Charleston, WV

Home | Current Version | Previous Version | Graphics & Text | Print | Product List | Glossary On
Versions: 1 2 3 4 5 6 7 8 9 10 11 12 13 14 15 16 17 18 19 20 21 22 23 24 25 26 27 28 29 30 31 32 33 34 35 36 37 38 39 40 41 42 43 44 45 46 47 48 49 50
000
ASUS41 KRLX 291410
RWRRLX
West Virginia Regional Weather Roundup
National Weather Service Charleston WV
1000 AM EDT FRI APR 29 2016

Note: "fair" indicates few or no clouds below 12,000 feet with no
significant weather and/or obstructions to visibility.

WVZ003-291500-
Northern Panhandle of West Virginia

CITY           SKY/WX    TMP DP  RH WIND       PRES   REMARKS
WHEELING       CLOUDY    50  47  89 SW5       29.99F FOG
$$

WVZ009-291500-
Northwest West Virginia

CITY           SKY/WX    TMP DP  RH WIND       PRES   REMARKS
PARKERSBURG    CLOUDY    55  53  93 W3        30.02F FOG
$$

WVZ006-291500-
Western West Virginia

CITY           SKY/WX    TMP DP  RH WIND       PRES   REMARKS
HUNTINGTON       N/A     66  56  70 VRB7      30.00F
$$

WVZ015-291500-
West Central West Virginia

CITY           SKY/WX    TMP DP  RH WIND       PRES   REMARKS
CHARLESTON     PTSUNNY   64  57  78 NW3       30.01S
$$

WVZ022-031-291500-
North Central West Virginia

CITY           SKY/WX    TMP DP  RH WIND       PRES   REMARKS
CLARKSBURG     CLOUDY    60  56  86 NW6       29.99S
MORGANTOWN     CLOUDY    55  51  86 S3        30.01S FOG
$$

WVZ025-035-042-045-291500-
Southern West Virginia

CITY           SKY/WX    TMP DP  RH WIND       PRES   REMARKS
BECKLEY        PTSUNNY   62  51  67 W10       30.04F
LOGAN          NOT AVBL
BLUEFIELD        N/A     61  47  59 NW14      30.07S
LEWISBURG      PTSUNNY   61  51  71 W5        30.03S
$$

WVZ047-291500-
Northern Mountains of West Virginia

CITY           SKY/WX    TMP DP  RH WIND       PRES   REMARKS
ELKINS           N/A     61  51  70 W8        30.01R
$$

WVZ052-291500-
Eastern Panhandle of West Virginia

CITY           SKY/WX    TMP DP  RH WIND       PRES   REMARKS
MARTINSBURG    CLOUDY    46  45  96 CALM      30.05R FOG
PETERSBURG     CLOUDY    51  49  94 E3        30.03S
$$



USA.gov is the U.S. government's official web portal to all federal, state and local government web resources and services.